Home > Time Zones > World Clock > Weather > Spain > Ibiza > Past weeks

Flag for Spain Weather past 2 weeks in Ibiza, Ibiza, Spain

Now
70 °F

Sunny.


Feels Like: 70 °F
Forecast: 56 / 69 °F
Wind: 16 mph from Southwest

Location: Ibiza / Es Codola

Current Time: Apr 27, 2015 at 4:47:59 PM

Latest Report: Apr 27, 2015 at 4:30 PM


Visibility: 10 mi

Pressure: 29.83 "Hg

Humidity: 57%

Dew point: 54 °F

Location of IbizaLocation

Historic Weather in Ibiza — Graph

°F

Ibiza temperature yesterday

Maximum temperature yesterday: 70 °F (at 3:00 PM)
Minimum temperature yesterday: 63 °F (at 12:00 AM)
Average temperature yesterday: 65 °F

Past Weeks' High & Low Weather Summary

 TemperatureHumidityPressure
High73 °F (Apr 27, 3:00 PM)100% (Apr 16, 9:30 PM)30.39 "Hg (Apr 16, 9:30 PM)
Low50 °F (Apr 18, 7:30 AM)33% (Apr 27, 3:00 PM)29.68 "Hg (Apr 26, 9:00 PM)
Average62 °F80%30.06 "Hg
* Reported Apr 12 3:00 PM — Apr 27 3:30 PM, Ibiza, Weather by CustomWeather, © 2015

Note: Actual official high and low records may vary slightly from our data, if they occured in-between our weather recording intervals... More about our weather records

Advertising

Ibiza weather history for previous 24 hours

 ConditionsComfort  
Time TempWeatherWind HumidityBarometerVisibility
3:30 PM
Mon, Apr 27
70 °FSunny.18 mph60%29.83 "Hg10 mi
3:00 PM73 °FSunny.21 mph33%29.83 "Hg10 mi
2:30 PM72 °FPassing clouds.20 mph47%29.83 "HgN/A
2:00 PM72 °FPassing clouds.22 mph47%29.83 "HgN/A
1:30 PM72 °FPassing clouds.24 mph41%29.83 "HgN/A
1:00 PM72 °FPassing clouds.21 mph41%29.83 "HgN/A
12:30 PM70 °FPassing clouds.22 mph43%29.83 "HgN/A
12:00 PM70 °FPassing clouds.22 mph46%29.80 "HgN/A
11:30 AM68 °FSunny.22 mph46%29.80 "Hg10 mi
11:00 AM68 °FSunny.16 mph49%29.80 "Hg10 mi
10:30 AM66 °FPassing clouds.23 mph52%29.77 "HgN/A
10:00 AM66 °FPassing clouds.18 mph52%29.77 "HgN/A
9:30 AM66 °FPassing clouds.22 mph52%29.77 "HgN/A
9:00 AM64 °FPassing clouds.21 mph60%29.74 "HgN/A
8:30 AM64 °FPassing clouds.20 mph56%29.74 "HgN/A
8:00 AM63 °FPassing clouds.21 mph59%29.74 "HgN/A
7:30 AM63 °FPassing clouds.23 mph59%29.74 "HgN/A
7:00 AM63 °FPassing clouds.22 mph59%29.71 "HgN/A
6:30 AM64 °FPassing clouds.25 mph52%29.71 "HgN/A
6:00 AM64 °FPassing clouds.21 mph49%29.71 "HgN/A
5:30 AM64 °FPassing clouds.22 mph49%29.71 "HgN/A
5:00 AM63 °FPassing clouds.20 mph56%29.71 "HgN/A
4:30 AM64 °FPassing clouds.25 mph49%29.71 "HgN/A
4:00 AM63 °FPassing clouds.14 mph59%29.71 "HgN/A
3:30 AM63 °FPassing clouds.13 mph68%29.71 "HgN/A
3:00 AM61 °FPassing clouds.9 mph72%29.71 "HgN/A
2:30 AM61 °FPassing clouds.7 mph63%29.71 "HgN/A
2:00 AM64 °FPassing clouds.12 mph56%29.74 "HgN/A
1:30 AM64 °FPassing clouds.12 mph56%29.74 "HgN/A
1:00 AM66 °FPassing clouds.21 mph60%29.74 "HgN/A
12:30 AM66 °FPassing clouds.16 mph60%29.74 "HgN/A
12:00 AM66 °FPassing clouds.15 mph64%29.74 "HgN/A
11:30 PM
Sun, Apr 26
68 °FPassing clouds.14 mph49%29.74 "HgN/A
11:00 PM66 °FPassing clouds.12 mph56%29.71 "HgN/A
10:30 PM64 °FPassing clouds.20 mph64%29.71 "HgN/A
10:00 PM66 °FPassing clouds.24 mph52%29.71 "HgN/A
9:30 PM68 °FPassing clouds.18 mph60%29.71 "HgN/A
9:00 PM68 °FPassing clouds.17 mph60%29.68 "HgN/A
8:30 PM64 °FPassing clouds.8 mph88%29.71 "HgN/A
8:00 PM64 °FPassing clouds.10 mph88%29.71 "HgN/A
7:30 PM64 °FScattered clouds.10 mph88%29.71 "HgN/A
7:00 PM66 °FScattered clouds.9 mph83%29.71 "HgN/A
6:30 PM66 °FPassing clouds.9 mph83%29.71 "HgN/A
6:00 PM68 °FPassing clouds.13 mph83%29.71 "Hg6 mi
5:30 PM68 °FPassing clouds.13 mph83%29.71 "Hg5 mi
5:00 PM68 °FPassing clouds.14 mph83%29.71 "Hg5 mi
4:30 PM68 °FPassing clouds.12 mph83%29.74 "Hg5 mi
4:00 PM70 °FPassing clouds.10 mph78%29.74 "Hg5 mi
Weather by CustomWeather, © 2015

See weather overviewHow to use our weather pages